Location: Lake Crest
(37.6062°N, 88.9176°W)
Time: 21:26:38
(UTC+00:00)

ALOS - Pass Details

Date: 15 December 2019
Orbit: 684 x 685 km, 97.8° (Epoch: 21 January)

Event Time Altitude Azimuth Distance (km) Brightness Sun altitude
Rises 11:05:25 0° 14° (NNE) 3,056 5.6 -22.6°
Reaches altitude 10° 11:07:41 10° 17° (NNE) 2,136 4.8 -22.1°
Maximum altitude 11:12:21 71° 101° (E) 727 2.5 -21.2°
Drops below altitude 10° 11:16:59 10° 186° (S) 2,120 4.9 -20.3°
Sets 11:19:13 0° 188° (S) 3,031 5.7 -19.9°
